Powrót do katalogu

STARLINK-6351

AktywnyŁącznośćVLEO
NORAD 57240·PAYLOAD·🇺🇸 United States

Wystrzelony Jul 7, 2023 z Vandenberg Space Force Base

Loading…

Następne Przeloty (najbliższe 24 godziny)

TLE

ŚwieżeSource: CelesTrak SupGP

Epoka: Sep 15, 2026, 02:57 UTC

1 57240C 23094Y   26258.12340278 -.00024764  00000+0 -89685-3 0  2587
2 57240  43.0030  29.6676 0001927 267.7260 181.3421 15.27593426    10

Śledź STARLINK-6351 w czasie rzeczywistym z AllMySat

Download on the App Store